Temperature
16 16 16 16 16 16 16 16 15 15 16 15 15 15 15 15 15 15 15 15 15 15 15 15 15 15 15 15 15 15 15 15 15 15 15 15 15 15 15 15 15 15 15
16 16 16 16 16 16 16 15 15 15 15 15 15 15 15 15 15 15 15 15 15 15 15 15 15 15 14 14 14 15 15 15 14 15 15 15 14 14 14 14 14 14 14
16 16 16 15 15 15 15 15 15 15 15 15 15 15 15 15 15 15 15 15 15 15 15 15 14 14 14 14 14 14 14 14 14 14 14 14 14 14 14 14 14 14 14
15 15 15 15 15 15 15 15 15 15 15 15 15 15 15 15 15 15 15 14 14 14 14 14 14 14 14 14 14 14 14 14 14 14 14 14 14 14 14 14 14 14 14
15 15 15 15 15 15 15 15 15 15 15 14 14 14 14 14 14 14 14 14 14 14 14 14 14 14 14 14 14 14 14 14 14 14 14 14 14 14 14 14 14 14 14
15 15 15 15 15 15 15 15 15 14 14 14 14 14 14 14 14 14 14 14 14 14 14 14 14 14 14 14 13 13 13 13 13 13 13 14 14 14 14 13 13 13 13
15 15 15 15 15 15 15 14 14 14 14 14 14 14 14 14 14 14 14 14 14 14 14 14 14 14 13 13 13 13 13 13 13 13 13 13 13 13 13 13 13 13 13
15 15 15 15 15 15 14 14 14 14 14 14 14 14 13 13 13 14 14 14 14 14 13 13 13 13 13 13 13 13 13 13 13 13 13 13 13 13 13 13 13 13 13
15 15 15 15 15 15 14 14 14 14 14 14 14 14 13 13 13 13 13 13 13 13 13 13 13 13 13 13 13 13 13 13 13 13 13 13 13 13 13 13 13 13 13
15 15 15 15 14 14 14 14 14 14 14 14 14 13 13 13 13 13 13 13 13 13 13 13 13 13 13 13 13 13 13 13 12 12 12 12 12 13 13 13 12 12 13
15 15 14 14 14 14 14 14 14 14 14 14 13 13 13 13 13 13 13 13 13 13 13 13 13 13 13 13 12 12 12 12 12 12 12 12 12 12 12 12 12 12 12
15 14 14 14 14 14 14 14 14 14 14 13 13 13 13 13 13 13 12 12 13 13 12 12 12 12 12 12 12 12 12 12 12 12 12 12 12 12 12 12 12 12 12
15 14 14 14 14 14 14 14 14 13 13 13 13 13 13 13 12 12 12 12 12 12 12 12 12 12 12 12 12 12 12 12 12 12 12 12 12 12 12 12 12 12 12
14 14 14 14 14 14 14 13 13 13 13 13 13 13 12 12 12 12 12 12 12 12 12 12 12 12 12 12 12 12 12 12 12 12 12 12 12 12 12 12 12 12 12
14 14 14 14 13 13 13 13 13 13 13 13 12 12 12 12 12 12 12 12 12 11 12 12 12 12 12 12 12 12 12 11 12 12 12 11 11 11 11 11 11 11 12
14 14 13 13 13 13 13 13 13 13 12 12 12 12 12 12 12 12 12 12 12 11 11 12 12 12 12 12 11 11 11 11 11 11 11 11 11 11 11 11 11 11 11
14 14 13 13 13 13 13 12 12 12 12 12 12 12 12 12 12 12 12 12 12 11 11 12 12 12 12 12 11 11 11 11 11 11 11 11 11 11 11 11 11 11 11
13 13 13 13 13 13 12 12 12 12 12 12 12 12 12 11 11 11 11 11 11 11 11 11 11 12 11 11 11 11 11 11 11 11 11 11 11 11 11 11 11 11 11
13 13 13 13 13 12 12 12 12 11 11 11 11 11 11 11 11 11 11 11 11 11 11 11 11 11 11 11 11 11 11 11 11 10 10 10 11 10 10 10 10 10 10
13 13 13 12 12 12 12 12 11 11 11 11 11 11 11 11 11 11 11 11 11 11 11 11 11 11 11 11 11 11 11 11 11 10 10 10 10 10 10 10 10 10 10
12 12 12 12 12 12 11 11 11 11 11 10 10 10 10 10 10 10 10 10 10 10 10 10 10 11 11 10 10 10 10 10 10 10 10 10 10 10 10 10 10 10 10
12 12 12 12 11 11 11 11 11 11 10 10 10 10 10 10 10 10 10 10 10 10 10 10 10 10 10 10 10 10 10 10 10 10 10 10 10 10 10 10 10 10 10
12 12 11 11 11 11 11 11 10 10 10 10 10 10 10 9 9 9 9 10 10 10 10 10 10 10 10 10 10 10 10 10 10 10 9 10 10 10 10 10 9 9 9
11 11 11 11 11 11 10 10 10 10 10 9 9 9 9 9 9 9 9 9 9 9 9 9 9 9 10 9 9 9 9 9 9 9 9 9 9 10 10 10 9 9 9
11 11 11 11 10 10 10 10 10 9 9 9 9 9 9 9 9 9 9 9 9 9 9 9 9 9 9 9 9 9 9 9 9 9 9 9 9 9 9 9 9 9 9
11 10 10 10 10 10 9 9 9 9 9 9 9 9 9 8 8 8 8 8 8 9 9 9 9 9 9 9 9 9 9 8 8 9 9 8 8 8 8 9 9 9 9
Wind_Speed
2 3 3 4 4 5 4 4 4 5 5 6 6 6 5 6 6 6 6 7 8 8 8 8 8 8 8 8 8 8 7 7 6 6 5 5 5 4 4 3 3 3 2
3 3 3 3 3 4 4 4 4 4 4 4 5 5 5 5 6 6 6 7 8 7 7 7 7 8 8 8 8 7 7 7 6 6 5 5 4 4 4 3 3 3 3
4 3 3 2 3 4 5 5 5 4 4 4 5 4 4 5 5 5 6 6 7 7 7 7 6 7 7 7 7 7 7 6 6 6 5 5 4 4 4 4 3 3 3
5 4 3 2 3 4 4 3 3 4 4 4 4 4 4 4 5 5 6 6 6 6 6 6 6 6 7 7 7 7 6 6 6 6 6 6 5 5 5 3 4 3 3
5 4 3 2 3 3 3 3 3 3 3 3 3 4 4 4 4 5 5 6 6 6 6 6 6 6 6 6 6 6 5 6 6 6 5 5 5 5 5 5 4 4 3
5 5 3 3 3 3 3 3 4 4 3 3 4 4 4 4 4 4 4 5 5 6 6 6 6 5 5 5 5 5 5 5 5 5 4 4 4 4 4 5 4 4 4
4 4 3 2 3 3 2 3 3 4 3 2 3 3 4 4 4 3 3 3 4 5 5 5 5 4 4 4 4 4 4 4 4 4 5 5 4 4 4 4 4 4 4
4 4 3 2 3 3 3 2 3 2 2 2 2 2 3 4 4 4 3 3 3 4 4 4 4 4 3 3 4 4 3 3 3 4 4 4 4 3 3 4 3 3 4
3 3 4 3 3 3 2 2 2 3 2 2 2 3 2 1 2 3 3 2 3 2 3 3 3 3 3 2 3 3 3 3 3 3 3 3 3 3 3 3 3 4 4
2 3 3 3 3 2 2 2 2 2 3 2 1 2 2 3 2 2 3 3 3 2 2 2 3 3 2 2 2 2 2 2 3 3 3 3 3 3 3 3 3 3 4
1 2 3 3 2 2 2 2 2 2 2 2 2 1 2 2 2 2 2 3 3 2 2 2 1 2 2 2 2 2 2 2 2 3 3 3 3 4 4 3 3 3 3
1 1 2 2 2 2 2 2 2 2 2 2 2 2 2 2 2 2 2 2 2 3 2 2 1 2 2 2 2 3 3 3 3 3 3 3 4 4 4 4 3 3 3
0 1 1 2 2 2 2 2 2 2 2 2 2 2 2 2 2 3 2 1 1 2 2 2 2 2 2 2 3 3 3 3 3 3 3 3 4 4 4 4 4 4 4
2 1 1 1 1 2 2 2 2 2 2 2 2 2 1 2 2 3 3 2 1 2 2 3 2 2 3 3 3 3 3 3 3 3 3 3 3 4 5 5 5 5 5
1 1 1 1 1 1 2 2 2 2 2 2 2 2 2 1 2 2 3 3 3 2 3 3 2 2 3 3 3 3 3 3 4 4 4 3 4 4 5 6 6 6 6
1 2 1 1 1 1 1 2 1 2 2 2 2 2 1 1 1 1 2 2 3 4 3 3 3 3 2 2 3 3 4 4 4 4 5 4 5 5 6 6 6 6 6
2 2 2 1 1 1 1 1 2 2 2 2 1 2 2 2 1 1 1 1 2 3 3 3 2 2 2 2 2 2 3 3 4 5 5 5 5 6 6 7 7 6 6
1 2 2 1 1 1 1 2 2 2 3 2 2 2 2 2 2 2 2 2 2 3 4 4 2 2 2 2 2 2 2 3 4 6 6 6 6 6 6 6 6 6 6
1 1 2 1 1 1 1 1 2 2 2 2 2 2 3 2 2 2 2 2 2 2 2 3 3 2 1 1 1 2 2 2 3 5 6 6 6 7 7 7 7 7 6
2 1 1 1 1 1 1 1 2 1 1 1 1 2 2 3 3 3 2 3 2 2 2 2 2 2 2 1 1 1 2 2 3 2 4 6 7 7 7 7 7 7 7
2 1 1 1 0 1 1 1 2 2 2 1 1 2 2 3 3 3 2 2 2 2 2 2 2 2 2 1 2 2 2 3 3 2 2 3 4 4 5 7 8 8 7
1 2 1 0 0 1 1 2 2 2 2 1 1 2 2 3 4 4 4 3 3 3 3 3 3 3 4 4 3 2 2 1 3 2 1 3 2 3 5 6 7 7 7
1 1 1 1 1 2 1 0 1 1 1 1 2 2 2 3 2 2 3 3 3 4 4 4 4 5 4 4 3 3 3 3 4 3 1 3 2 3 5 6 7 7 6
1 1 0 1 1 2 1 0 1 1 0 1 2 2 2 3 2 1 2 2 3 4 4 3 4 5 4 4 4 4 4 3 3 2 2 3 2 3 3 5 6 7 6
1 1 0 1 1 3 2 1 2 1 0 2 2 2 2 2 3 2 1 2 3 4 4 4 4 4 5 4 1 1 1 0 2 3 2 2 2 2 2 3 5 6 6
1 1 1 1 1 2 3 2 2 1 0 2 2 3 3 3 3 2 2 2 3 5 3 3 3 4 3 3 3 3 3 2 1 3 2 2 1 1 2 2 3 4 4
Wind_Direction
72 63 58 55 56 62 66 65 67 63 60 58 60 63 61 56 53 53 56 65 74 76 77 80 82 84 85 83 81 79 75 70 69 66 64 66 66 64 64 60 54 43 41
99 84 69 62 59 65 70 76 74 66 60 61 54 54 58 61 57 53 51 54 62 68 71 75 81 85 84 81 79 75 71 67 63 60 58 60 62 59 65 62 52 50 47
107 100 83 69 63 75 79 77 70 67 61 57 50 46 52 56 56 52 51 49 48 53 61 68 79 81 80 79 77 74 69 63 59 56 55 53 55 58 57 53 49 50 41
117 111 98 85 81 81 83 77 66 65 58 55 47 36 40 46 47 50 53 49 47 46 49 65 80 84 79 75 73 72 69 63 60 57 52 48 52 54 46 45 43 42 37
117 116 104 94 90 83 74 81 68 75 71 61 56 42 33 34 35 46 45 44 48 50 49 56 67 75 75 69 65 63 63 59 57 53 49 43 44 43 39 39 37 35 31
122 119 110 100 98 91 74 74 79 68 74 71 66 47 28 25 35 34 31 40 45 49 51 51 50 53 60 57 53 51 50 50 48 42 41 40 37 39 35 30 28 28 22
128 125 117 109 105 103 105 101 99 80 56 54 66 34 17 25 32 24 24 36 36 37 44 47 50 50 45 42 39 35 31 31 32 30 34 35 30 27 25 18 17 20 18
128 132 132 132 123 109 98 96 108 103 63 47 98 83 18 359 3 13 11 24 20 31 33 32 44 43 41 36 21 20 17 14 18 16 16 19 16 14 16 11 9 8 8
126 130 135 136 136 132 140 142 135 128 122 44 60 125 129 231 321 343 358 6 2 8 5 18 31 28 31 25 11 9 6 5 0 358 1 2 3 9 11 4 2 2 359
113 127 131 135 140 137 145 160 133 133 135 134 57 57 118 152 145 336 333 343 356 355 343 355 8 8 9 0 337 326 341 348 345 343 351 356 355 355 354 343 345 344 345
90 126 138 136 142 151 163 155 137 140 148 161 159 140 103 79 113 150 284 318 338 326 324 327 337 345 344 335 313 316 327 322 325 329 335 339 340 339 339 334 326 336 335
39 93 138 146 158 164 174 172 161 153 158 153 157 165 163 161 179 167 209 263 292 301 311 310 309 304 312 311 288 302 299 299 298 306 321 326 325 322 326 331 331 323 323
211 256 150 161 169 173 168 161 152 166 170 165 175 185 188 190 174 162 167 217 268 300 317 302 275 283 296 290 285 294 291 292 285 291 303 311 323 314 317 323 323 318 313
210 201 166 160 155 151 153 148 152 180 161 171 185 182 189 206 189 177 171 166 230 309 312 286 290 264 276 270 277 278 278 294 291 285 285 292 313 308 303 310 309 310 310
169 133 138 126 131 136 142 146 162 186 167 176 187 187 195 214 211 201 177 172 174 223 270 271 274 275 269 263 274 261 250 275 287 281 274 277 282 299 305 304 302 302 304
150 138 143 139 139 162 165 160 171 184 166 190 190 180 206 221 225 204 192 193 189 186 230 255 247 260 271 278 281 267 262 281 287 283 273 271 277 289 298 297 294 295 298
166 159 175 178 182 194 192 180 190 173 182 202 210 201 230 217 212 220 199 196 200 183 220 264 247 256 245 278 307 284 276 268 277 283 279 272 276 284 294 300 285 284 293
179 166 159 163 186 198 186 181 197 189 190 203 221 218 245 231 223 222 211 223 222 204 200 242 265 264 251 259 283 293 285 276 270 277 275 274 275 277 281 290 289 281 287
135 124 138 157 178 181 170 191 189 189 193 210 214 217 237 222 241 240 229 234 237 225 203 214 252 259 265 271 292 306 307 292 279 277 275 277 275 273 273 277 280 285 288
111 123 145 167 181 177 182 189 170 173 193 226 230 227 229 224 235 238 239 240 233 225 211 216 242 258 260 268 222 269 302 300 297 290 291 286 280 276 273 273 272 277 284
104 111 109 106 180 198 210 197 185 186 188 237 281 272 253 254 262 251 251 236 216 214 220 232 245 256 258 250 245 235 259 299 292 261 297 292 282 276 274 273 270 274 276
70 79 72 60 332 280 258 203 172 182 191 199 256 283 278 274 279 273 266 251 218 209 218 226 243 245 255 244 237 228 228 283 285 264 242 275 254 267 267 262 268 272 271
75 69 44 29 314 299 307 210 172 166 194 214 227 257 284 294 288 267 275 277 261 252 225 219 232 244 250 237 221 226 227 234 248 250 216 259 245 260 270 267 268 271 271
110 102 54 335 330 329 341 52 90 113 167 273 256 241 250 275 274 259 261 277 277 273 255 241 240 253 257 243 223 222 226 241 274 261 187 238 262 265 285 275 266 267 271
114 109 70 30 2 339 358 54 75 95 15 303 293 278 258 256 277 276 246 265 291 297 293 279 279 286 289 283 241 137 138 265 279 265 203 210 258 296 296 284 277 273 271
129 96 48 18 354 336 357 21 52 99 348 311 314 305 294 282 281 270 228 235 264 280 294 301 304 308 309 298 254 208 200 214 250 258 220 203 237 302 303 290 291 289 284
Height
1528 1528 1528 1528 1528 1528 1528 1528 1528 1528 1528 1528 1528 1528 1528 1529 1529 1530 1530 1530 1530 1530 1530 1530 1531 1531 1531 1532 1532 1533 1533 1533 1533 1534 1534 1534 1534 1534 1535 1535 1535 1535 1535
1529 1529 1529 1529 1529 1529 1529 1529 1529 1529 1529 1529 1529 1529 1529 1530 1530 1530 1531 1531 1531 1532 1532 1531 1532 1532 1532 1532 1532 1533 1533 1533 1533 1533 1534 1534 1534 1534 1534 1534 1534 1534 1534
1530 1530 1530 1530 1529 1529 1529 1529 1529 1529 1529 1529 1530 1530 1530 1530 1530 1531 1531 1532 1532 1532 1532 1532 1532 1532 1532 1533 1533 1533 1533 1533 1533 1533 1533 1533 1533 1533 1534 1533 1533 1533 1533
1530 1530 1530 1530 1530 1530 1530 1530 1530 1530 1530 1530 1530 1530 1530 1531 1531 1531 1532 1532 1533 1533 1533 1533 1533 1533 1533 1533 1533 1533 1533 1533 1533 1533 1533 1533 1533 1533 1533 1533 1533 1532 1532
1531 1531 1531 1531 1531 1531 1531 1531 1530 1530 1530 1530 1531 1531 1531 1531 1531 1532 1532 1532 1533 1533 1533 1533 1533 1533 1533 1533 1533 1533 1533 1533 1533 1532 1532 1532 1532 1532 1532 1532 1532 1532 1531
1531 1531 1531 1531 1531 1531 1531 1531 1531 1531 1531 1531 1531 1531 1531 1531 1532 1532 1532 1532 1533 1533 1533 1533 1533 1533 1533 1533 1533 1533 1533 1532 1532 1532 1532 1531 1531 1531 1531 1531 1531 1531 1530
1531 1531 1531 1532 1532 1532 1531 1531 1531 1531 1531 1531 1531 1531 1532 1532 1532 1532 1532 1532 1532 1533 1533 1533 1533 1533 1533 1533 1533 1533 1532 1532 1531 1531 1531 1530 1530 1530 1530 1530 1530 1529 1529
1531 1531 1532 1532 1532 1532 1532 1532 1531 1531 1531 1531 1532 1531 1532 1533 1532 1532 1532 1532 1532 1532 1532 1533 1533 1533 1532 1532 1532 1532 1532 1531 1531 1530 1530 1529 1529 1529 1529 1529 1528 1528 1528
1531 1531 1531 1531 1531 1531 1531 1531 1531 1531 1531 1531 1532 1532 1532 1532 1532 1532 1532 1532 1532 1532 1532 1532 1532 1532 1532 1531 1531 1531 1531 1530 1530 1529 1529 1528 1528 1528 1527 1527 1527 1527 1526
1531 1531 1531 1531 1531 1531 1531 1531 1531 1530 1531 1531 1531 1531 1532 1531 1532 1532 1532 1532 1531 1531 1531 1531 1531 1531 1531 1530 1530 1530 1529 1529 1528 1528 1527 1527 1526 1526 1526 1525 1525 1525 1524
1530 1530 1530 1530 1530 1530 1530 1530 1530 1530 1530 1530 1530 1530 1530 1531 1531 1531 1531 1531 1531 1530 1530 1530 1530 1529 1529 1529 1528 1528 1528 1527 1527 1526 1526 1525 1525 1524 1524 1524 1523 1523 1522
1529 1529 1529 1529 1529 1528 1528 1528 1528 1529 1529 1529 1529 1529 1529 1529 1529 1529 1529 1529 1529 1529 1529 1529 1528 1528 1528 1527 1527 1526 1526 1526 1525 1524 1524 1523 1523 1523 1522 1522 1521 1521 1520
1527 1527 1527 1527 1527 1527 1527 1527 1527 1527 1527 1527 1527 1527 1528 1528 1528 1528 1528 1528 1527 1527 1527 1527 1527 1526 1526 1526 1525 1525 1524 1524 1523 1522 1522 1521 1521 1520 1520 1520 1519 1519 1518
1526 1526 1526 1526 1525 1525 1525 1525 1525 1525 1525 1525 1525 1526 1526 1526 1526 1526 1527 1526 1526 1525 1525 1525 1525 1525 1524 1524 1523 1523 1522 1522 1521 1520 1520 1519 1518 1518 1517 1517 1516 1516 1515
1524 1524 1524 1524 1523 1523 1523 1523 1523 1523 1523 1523 1524 1524 1524 1524 1524 1524 1525 1525 1525 1524 1523 1523 1523 1523 1522 1522 1521 1521 1520 1520 1519 1518 1517 1517 1516 1515 1514 1514 1513 1512 1512
1522 1522 1522 1522 1522 1521 1521 1521 1521 1521 1521 1521 1521 1522 1522 1522 1522 1522 1522 1522 1522 1522 1521 1520 1521 1521 1520 1520 1519 1519 1518 1517 1516 1516 1515 1514 1513 1512 1511 1510 1510 1509 1508
1520 1519 1520 1520 1519 1519 1519 1519 1518 1518 1519 1519 1519 1519 1519 1519 1520 1520 1520 1520 1520 1520 1519 1518 1518 1518 1518 1517 1517 1517 1516 1515 1514 1513 1512 1511 1511 1510 1508 1507 1506 1505 1504
1517 1517 1517 1517 1517 1517 1516 1516 1516 1516 1516 1516 1516 1516 1516 1516 1517 1517 1517 1517 1517 1517 1516 1515 1515 1515 1515 1515 1514 1514 1513 1512 1511 1510 1510 1509 1508 1507 1505 1504 1502 1501 1500
1514 1514 1514 1514 1514 1514 1514 1514 1514 1514 1513 1513 1513 1513 1513 1514 1513 1514 1514 1514 1514 1514 1513 1513 1512 1512 1512 1512 1511 1510 1510 1509 1508 1508 1507 1506 1505 1504 1502 1501 1499 1498 1497
1512 1512 1512 1512 1512 1511 1511 1511 1511 1511 1511 1511 1511 1510 1510 1510 1510 1510 1510 1510 1510 1510 1510 1510 1509 1509 1508 1508 1508 1507 1506 1505 1505 1504 1504 1503 1502 1501 1499 1498 1496 1495 1493
1509 1509 1509 1509 1509 1509 1509 1508 1508 1508 1508 1508 1508 1508 1507 1507 1507 1507 1507 1507 1507 1507 1507 1506 1506 1505 1505 1504 1504 1503 1502 1502 1501 1500 1499 1499 1498 1497 1496 1495 1493 1492 1491
1507 1507 1507 1507 1506 1506 1506 1506 1506 1506 1505 1505 1504 1504 1504 1504 1504 1504 1504 1504 1504 1504 1503 1503 1502 1502 1501 1501 1500 1500 1499 1498 1497 1497 1496 1495 1495 1494 1493 1492 1491 1489 1488
1504 1504 1504 1504 1504 1504 1503 1503 1503 1503 1502 1502 1501 1501 1501 1501 1501 1501 1501 1501 1501 1500 1501 1500 1499 1498 1498 1497 1497 1496 1495 1495 1494 1493 1492 1490 1491 1490 1490 1488 1488 1487 1486
1501 1502 1501 1501 1501 1501 1501 1500 1500 1500 1499 1499 1499 1498 1498 1498 1498 1498 1497 1497 1497 1497 1497 1496 1496 1495 1495 1494 1493 1493 1492 1491 1491 1490 1489 1488 1487 1486 1486 1485 1484 1484 1483
1499 1499 1499 1499 1498 1498 1498 1498 1498 1497 1496 1496 1495 1495 1495 1494 1495 1494 1494 1493 1493 1493 1493 1493 1492 1492 1491 1491 1490 1489 1488 1487 1486 1486 1486 1485 1483 1482 1482 1482 1481 1480 1480
1496 1497 1496 1496 1496 1496 1496 1495 1495 1494 1493 1493 1492 1492 1491 1491 1491 1491 1490 1490 1489 1489 1489 1489 1488 1488 1488 1487 1486 1486 1485 1484 1483 1483 1482 1482 1480 1480 1478 1478 1478 1477 1477